"Period start","avg(HW err(1)/warn(2) (#))","avg(Visibility (m))","avg(Weather code (#))","avg(Precip intensity (mm/h))","min(HW err(1)/warn(2) (#))","max(HW err(1)/warn(2) (#))","std(HW err(1)/warn(2) (#))","med(HW err(1)/warn(2) (#))","min(Visibility (m))","max(Visibility (m))","std(Visibility (m))","med(Visibility (m))","min(Weather code (#))","max(Weather code (#))","std(Weather code (#))","med(Weather code (#))","min(Precip intensity (mm/h))","max(Precip intensity (mm/h))","std(Precip intensity (mm/h))","med(Precip intensity (mm/h))"
2016-05-31 00:00:00,0,46927,0,0.00,0,0,0,0,38522,50000,3789,48493,0,0,0,0,0.00,0.00,0.00,0.00
2016-05-31 00:10:00,0,42302,0,0.00,0,0,0,0,37419,50000,3723,40602,0,0,0,0,0.00,0.00,0.00,0.00
2016-05-31 00:20:00,0,42183,0,0.00,0,0,0,0,32633,50000,5725,43396,0,0,0,0,0.00,0.00,0.00,0.00
2016-05-31 00:30:00,0,36656,0,0.00,0,0,0,0,28465,44254,6069,36744,0,0,0,0,0.00,0.00,0.00,0.00
2016-05-31 00:40:00,0,37654,0,0.00,0,0,0,0,28376,48252,6181,38383,0,0,0,0,0.00,0.00,0.00,0.00
2016-05-31 00:50:00,0,43165,0,0.00,0,2,1,0,31462,50000,6237,42948,0,0,0,0,0.00,0.00,0.00,0.00
2016-05-31 01:00:00,1,44382,0,0.00,0,2,1,1,37224,50000,5061,44626,0,0,0,0,0.00,0.00,0.00,0.00
2016-05-31 01:10:00,2,38268,0,0.00,0,2,1,2,23151,50000,8356,40184,0,0,0,0,0.00,0.00,0.00,0.00
2016-05-31 01:20:00,2,27220,0,0.00,2,2,0,2,21954,33785,4391,26720,0,0,0,0,0.00,0.00,0.00,0.00
2016-05-31 01:30:00,2,43485,0,0.00,0,2,1,2,31872,50000,5950,43412,0,0,0,0,0.00,0.00,0.00,0.00
2016-05-31 01:40:00,1,47319,0,0.00,0,2,1,2,44225,50000,2429,47842,0,0,0,0,0.00,0.00,0.00,0.00
2016-05-31 01:50:00,0,45146,0,0.00,0,0,0,0,33806,50000,5586,47414,0,0,0,0,0.00,0.00,0.00,0.00
2016-05-31 02:00:00,1,49258,0,0.00,0,2,1,0,47062,50000,1158,50000,0,0,0,0,0.00,0.00,0.00,0.00
2016-05-31 02:10:00,2,41530,0,0.00,2,2,0,2,29853,50000,6795,42274,0,0,0,0,0.00,0.00,0.00,0.00
2016-05-31 02:20:00,2,41004,0,0.00,2,2,0,2,25812,50000,8199,42858,0,0,0,0,0.00,0.00,0.00,0.00
2016-05-31 02:30:00,2,42671,0,0.00,2,2,0,2,27992,50000,7429,46282,0,0,0,0,0.00,0.00,0.00,0.00
2016-05-31 02:40:00,2,39861,0,0.00,2,2,0,2,25128,50000,7975,38186,0,0,0,0,0.00,0.00,0.00,0.00
2016-05-31 02:50:00,2,40152,0,0.00,2,2,0,2,31498,47110,5039,40746,0,0,0,0,0.00,0.00,0.00,0.00
2016-05-31 03:00:00,2,47713,0,0.00,2,2,0,2,36449,50000,4670,50000,0,0,0,0,0.00,0.00,0.00,0.00
2016-05-31 03:10:00,2,38506,0,0.00,2,2,0,2,26463,50000,7930,36740,0,0,0,0,0.00,0.00,0.00,0.00
2016-05-31 03:20:00,2,44533,0,0.00,2,2,0,2,30750,50000,7474,49279,0,0,0,0,0.00,0.00,0.00,0.00
2016-05-31 03:30:00,2,37961,0,0.00,2,2,0,2,25762,46062,4887,38876,0,0,0,0,0.00,0.00,0.00,0.00
2016-05-31 03:40:00,2,42895,0,0.00,2,2,0,2,29172,50000,5310,43958,0,0,0,0,0.00,0.00,0.00,0.00
2016-05-31 03:50:00,2,45413,0,0.00,2,2,0,2,30366,50000,5739,46661,0,0,0,0,0.00,0.00,0.00,0.00
2016-05-31 04:00:00,2,44138,0,0.00,2,2,0,2,36770,49533,3559,44160,0,0,0,0,0.00,0.00,0.00,0.00
2016-05-31 04:10:00,2,42141,0,0.00,2,2,0,2,27695,50000,7949,45776,0,0,0,0,0.00,0.00,0.00,0.00
2016-05-31 04:20:00,2,37678,0,0.00,2,2,0,2,28225,50000,6377,39596,0,0,0,0,0.00,0.00,0.00,0.00
2016-05-31 04:30:00,2,46544,0,0.00,2,2,0,2,36571,50000,4878,48944,0,0,0,0,0.00,0.00,0.00,0.00
2016-05-31 04:40:00,2,45359,0,0.00,2,2,0,2,39000,50000,3714,46936,0,0,0,0,0.00,0.00,0.00,0.00
2016-05-31 04:50:00,2,42490,0,0.00,2,2,0,2,31883,50000,6083,42292,0,0,0,0,0.00,0.00,0.00,0.00
2016-05-31 05:00:00,2,49173,0,0.00,0,2,1,2,46126,50000,1289,50000,0,0,0,0,0.00,0.00,0.00,0.00
2016-05-31 05:10:00,2,41442,0,0.00,0,2,1,2,32416,49202,5458,41158,0,0,0,0,0.00,0.00,0.00,0.00
2016-05-31 05:20:00,2,41691,0,0.00,2,2,0,2,35111,50000,5060,39850,0,0,0,0,0.00,0.00,0.00,0.00
2016-05-31 05:30:00,2,45127,0,0.00,2,2,0,2,36130,50000,4358,46336,0,0,0,0,0.00,0.00,0.00,0.00
2016-05-31 05:40:00,2,48656,0,0.00,2,2,0,2,43893,50000,1972,49674,0,0,0,0,0.00,0.00,0.00,0.00
2016-05-31 05:50:00,2,45008,0,0.00,2,2,0,2,36689,50000,4875,46058,0,0,0,0,0.00,0.00,0.00,0.00
2016-05-31 06:00:00,1,44910,0,0.00,0,2,1,1,35072,50000,5304,46190,0,0,0,0,0.00,0.00,0.00,0.00
2016-05-31 06:10:00,2,43901,0,0.00,0,2,1,2,35713,50000,5630,44020,0,0,0,0,0.00,0.00,0.00,0.00
2016-05-31 06:20:00,0,37716,0,0.00,0,2,1,0,29700,45257,4540,37771,0,0,0,0,0.00,0.00,0.00,0.00
2016-05-31 06:30:00,0,43861,0,0.00,0,0,0,0,27921,50000,6137,44092,0,0,0,0,0.00,0.00,0.00,0.00
2016-05-31 06:40:00,0,48543,0,0.00,0,0,0,0,44616,50000,2089,50000,0,0,0,0,0.00,0.00,0.00,0.00
2016-05-31 06:50:00,0,45967,0,0.00,0,0,0,0,29901,50000,5910,48328,0,0,0,0,0.00,0.00,0.00,0.00
2016-05-31 07:00:00,0,47003,0,0.00,0,0,0,0,40493,50000,3268,48182,0,0,0,0,0.00,0.00,0.00,0.00
2016-05-31 07:10:00,0,47016,0,0.00,0,0,0,0,39790,50000,3187,47649,0,0,0,0,0.00,0.00,0.00,0.00
2016-05-31 07:20:00,0,49083,0,0.00,0,0,0,0,46362,50000,1173,49658,0,0,0,0,0.00,0.00,0.00,0.00
2016-05-31 07:30:00,0,45174,0,0.00,0,0,0,0,34072,50000,5741,46744,0,0,0,0,0.00,0.00,0.00,0.00
2016-05-31 07:40:00,0,49975,0,0.00,0,0,0,0,49753,50000,74,50000,0,0,0,0,0.00,0.00,0.00,0.00
2016-05-31 07:50:00,0,49685,0,0.00,0,0,0,0,47608,50000,728,50000,0,0,0,0,0.00,0.00,0.00,0.00
2016-05-31 08:00:00,0,42230,42,0.22,0,0,0,0,21429,50000,9654,45540,0,61,27,61,0.00,1.15,0.37,0.03
2016-05-31 08:10:00,0,49694,0,0.00,0,0,0,0,46943,50000,917,50000,0,0,0,0,0.00,0.00,0.00,0.00
2016-05-31 08:20:00,0,50000,0,0.00,0,0,0,0,50000,50000,0,50000,0,0,0,0,0.00,0.00,0.00,0.00
2016-05-31 08:30:00,0,49730,0,0.00,0,0,0,0,47296,50000,811,50000,0,0,0,0,0.00,0.00,0.00,0.00
2016-05-31 08:40:00,0,48382,0,0.00,0,0,0,0,42801,50000,2467,50000,0,0,0,0,0.00,0.00,0.00,0.00
2016-05-31 08:50:00,0,49405,0,0.00,0,0,0,0,44453,50000,1655,50000,0,0,0,0,0.00,0.00,0.00,0.00
2016-05-31 09:00:00,0,49153,0,0.00,0,0,0,0,41739,50000,2472,50000,0,0,0,0,0.00,0.00,0.00,0.00
2016-05-31 09:10:00,0,48895,0,0.00,0,0,0,0,43407,50000,2222,50000,0,0,0,0,0.00,0.00,0.00,0.00
2016-05-31 09:20:00,0,50000,0,0.00,0,0,0,0,50000,50000,0,50000,0,0,0,0,0.00,0.00,0.00,0.00
2016-05-31 09:30:00,0,49946,0,0.00,0,0,0,0,49559,50000,132,50000,0,0,0,0,0.00,0.00,0.00,0.00
2016-05-31 09:40:00,0,50000,0,0.00,0,0,0,0,50000,50000,0,50000,0,0,0,0,0.00,0.00,0.00,0.00
2016-05-31 09:50:00,0,49604,0,0.00,0,0,0,0,46919,50000,932,50000,0,0,0,0,0.00,0.00,0.00,0.00
2016-05-31 10:00:00,0,38792,12,0.04,0,0,0,0,27213,46855,6351,40373,0,61,24,0,0.00,0.40,0.12,0.00
2016-05-31 10:10:00,0,48410,26,0.07,0,0,0,0,45371,50000,1823,49390,0,51,26,26,0.00,0.30,0.11,0.00
2016-05-31 10:20:00,0,50000,0,0.00,0,0,0,0,50000,50000,0,50000,0,0,0,0,0.00,0.00,0.00,0.00
2016-05-31 10:30:00,0,49387,0,0.00,0,0,0,0,43932,50000,1818,50000,0,0,0,0,0.00,0.00,0.00,0.00
2016-05-31 10:40:00,0,43074,17,0.25,0,0,0,0,23510,50000,10484,49887,0,61,27,0,0.00,1.00,0.39,0.00
2016-05-31 10:50:00,0,21026,52,1.58,0,2,1,0,13508,32285,6611,19435,52,52,0,52,0.20,3.15,0.90,1.73
2016-05-31 11:00:00,2,31976,51,0.68,2,2,0,2,16548,44492,8526,30852,41,61,8,52,0.00,1.90,0.65,0.48
2016-05-31 11:10:00,2,19626,61,2.19,2,2,0,2,11661,29209,5523,18937,61,61,0,61,0.10,5.50,2.04,1.38
2016-05-31 11:20:00,2,20705,55,1.28,2,2,0,2,15443,37463,6268,18466,51,61,5,52,0.05,3.05,0.95,1.18
2016-05-31 11:30:00,2,13318,57,3.29,2,2,0,2,10121,21875,3922,11568,52,61,4,61,1.15,7.25,1.71,3.28
2016-05-31 11:40:00,2,16233,53,1.58,2,2,0,2,13397,20536,2262,16047,52,61,3,52,0.55,3.25,0.74,1.33
2016-05-31 11:50:00,2,15631,58,1.26,2,2,0,2,10980,22520,3088,15436,52,61,4,61,0.30,3.10,0.77,1.05
2016-05-31 12:00:00,2,33982,30,0.93,2,2,0,2,9981,50000,17097,42343,0,61,30,30,0.00,3.05,1.05,0.45
2016-05-31 12:10:00,2,50000,0,0.00,2,2,0,2,50000,50000,0,50000,0,0,0,0,0.00,0.00,0.00,0.00
2016-05-31 12:20:00,2,50000,0,0.00,2,2,0,2,50000,50000,0,50000,0,0,0,0,0.00,0.00,0.00,0.00
2016-05-31 12:30:00,2,50000,0,0.00,2,2,0,2,50000,50000,0,50000,0,0,0,0,0.00,0.00,0.00,0.00
2016-05-31 12:40:00,2,49882,0,0.00,2,2,0,2,48815,50000,356,50000,0,0,0,0,0.00,0.00,0.00,0.00
2016-05-31 12:50:00,2,45956,0,0.00,2,2,0,2,35620,50000,4922,49012,0,0,0,0,0.00,0.00,0.00,0.00
2016-05-31 13:00:00,2,50000,0,0.00,2,2,0,2,50000,50000,0,50000,0,0,0,0,0.00,0.00,0.00,0.00
2016-05-31 13:10:00,2,49910,0,0.00,2,2,0,2,49099,50000,270,50000,0,0,0,0,0.00,0.00,0.00,0.00
2016-05-31 13:20:00,2,49701,0,0.00,2,2,0,2,48455,50000,517,50000,0,0,0,0,0.00,0.00,0.00,0.00
2016-05-31 13:30:00,2,50000,0,0.00,2,2,0,2,50000,50000,0,50000,0,0,0,0,0.00,0.00,0.00,0.00
2016-05-31 13:40:00,2,50000,0,0.00,2,2,0,2,50000,50000,0,50000,0,0,0,0,0.00,0.00,0.00,0.00
2016-05-31 13:50:00,2,50000,0,0.00,2,2,0,2,50000,50000,0,50000,0,0,0,0,0.00,0.00,0.00,0.00
2016-05-31 14:00:00,2,50000,0,0.00,2,2,0,2,50000,50000,0,50000,0,0,0,0,0.00,0.00,0.00,0.00
2016-05-31 14:10:00,2,50000,0,0.00,2,2,0,2,50000,50000,0,50000,0,0,0,0,0.00,0.00,0.00,0.00
2016-05-31 14:20:00,2,50000,0,0.00,2,2,0,2,50000,50000,0,50000,0,0,0,0,0.00,0.00,0.00,0.00
2016-05-31 14:30:00,2,50000,0,0.00,2,2,0,2,50000,50000,0,50000,0,0,0,0,0.00,0.00,0.00,0.00
2016-05-31 14:40:00,2,50000,0,0.00,2,2,0,2,50000,50000,0,50000,0,0,0,0,0.00,0.00,0.00,0.00
2016-05-31 14:50:00,2,50000,0,0.00,2,2,0,2,50000,50000,0,50000,0,0,0,0,0.00,0.00,0.00,0.00
2016-05-31 15:00:00,2,49865,0,0.00,2,2,0,2,48653,50000,404,50000,0,0,0,0,0.00,0.00,0.00,0.00
2016-05-31 15:10:00,2,50000,0,0.00,2,2,0,2,50000,50000,0,50000,0,0,0,0,0.00,0.00,0.00,0.00
2016-05-31 15:20:00,2,50000,0,0.00,2,2,0,2,50000,50000,0,50000,0,0,0,0,0.00,0.00,0.00,0.00
2016-05-31 15:30:00,2,50000,0,0.00,2,2,0,2,50000,50000,0,50000,0,0,0,0,0.00,0.00,0.00,0.00
2016-05-31 15:40:00,2,49920,0,0.00,2,2,0,2,49196,50000,241,50000,0,0,0,0,0.00,0.00,0.00,0.00
2016-05-31 15:50:00,2,50000,0,0.00,2,2,0,2,50000,50000,0,50000,0,0,0,0,0.00,0.00,0.00,0.00
2016-05-31 16:00:00,2,50000,0,0.00,2,2,0,2,50000,50000,0,50000,0,0,0,0,0.00,0.00,0.00,0.00
2016-05-31 16:10:00,2,50000,0,0.00,2,2,0,2,50000,50000,0,50000,0,0,0,0,0.00,0.00,0.00,0.00
2016-05-31 16:20:00,2,50000,0,0.00,2,2,0,2,50000,50000,0,50000,0,0,0,0,0.00,0.00,0.00,0.00
2016-05-31 16:30:00,2,50000,0,0.00,2,2,0,2,50000,50000,0,50000,0,0,0,0,0.00,0.00,0.00,0.00
2016-05-31 16:40:00,2,50000,0,0.00,2,2,0,2,50000,50000,0,50000,0,0,0,0,0.00,0.00,0.00,0.00
2016-05-31 16:50:00,2,50000,0,0.00,2,2,0,2,50000,50000,0,50000,0,0,0,0,0.00,0.00,0.00,0.00
2016-05-31 17:00:00,2,48065,0,0.00,2,2,0,2,41108,50000,3008,50000,0,0,0,0,0.00,0.00,0.00,0.00
2016-05-31 17:10:00,2,49619,0,0.00,2,2,0,2,46997,50000,906,50000,0,0,0,0,0.00,0.00,0.00,0.00
2016-05-31 17:20:00,2,48070,0,0.00,2,2,0,2,40507,50000,3286,50000,0,0,0,0,0.00,0.00,0.00,0.00
2016-05-31 17:30:00,2,49647,0,0.00,2,2,0,2,47748,50000,739,50000,0,0,0,0,0.00,0.00,0.00,0.00
2016-05-31 17:40:00,2,47966,0,0.00,2,2,0,2,41998,50000,2988,49334,0,0,0,0,0.00,0.00,0.00,0.00
2016-05-31 17:50:00,2,48622,0,0.00,2,2,0,2,45361,50000,1806,49708,0,0,0,0,0.00,0.00,0.00,0.00
2016-05-31 18:00:00,2,49512,0,0.00,2,2,0,2,47650,50000,881,50000,0,0,0,0,0.00,0.00,0.00,0.00
2016-05-31 18:10:00,2,48624,0,0.00,2,2,0,2,43476,50000,2074,50000,0,0,0,0,0.00,0.00,0.00,0.00
2016-05-31 18:20:00,2,49841,0,0.00,2,2,0,2,49102,50000,294,50000,0,0,0,0,0.00,0.00,0.00,0.00
2016-05-31 18:30:00,2,46130,0,0.00,2,2,0,2,38729,50000,4199,48101,0,0,0,0,0.00,0.00,0.00,0.00
2016-05-31 18:40:00,2,42519,0,0.00,2,2,0,2,30434,50000,6418,43810,0,0,0,0,0.00,0.00,0.00,0.00
2016-05-31 18:50:00,2,36709,0,0.00,2,2,0,2,26231,43791,5452,36764,0,0,0,0,0.00,0.00,0.00,0.00
2016-05-31 19:00:00,2,32555,0,0.00,2,2,0,2,25678,37161,3586,33315,0,0,0,0,0.00,0.00,0.00,0.00
2016-05-31 19:10:00,2,32111,0,0.00,2,2,0,2,20995,39034,5659,33084,0,0,0,0,0.00,0.00,0.00,0.00
2016-05-31 19:20:00,2,22812,0,0.00,2,2,0,2,20370,25989,1925,22232,0,0,0,0,0.00,0.00,0.00,0.00
2016-05-31 19:30:00,2,18354,0,0.00,2,2,0,2,14753,23567,2510,18370,0,0,0,0,0.00,0.00,0.00,0.00
2016-05-31 19:40:00,2,18013,0,0.00,2,2,0,2,14564,20666,1851,17542,0,0,0,0,0.00,0.00,0.00,0.00
2016-05-31 19:50:00,2,17262,0,0.00,2,2,0,2,14633,18862,1362,17626,0,0,0,0,0.00,0.00,0.00,0.00
2016-05-31 20:00:00,2,16367,0,0.00,2,2,0,2,14628,21630,1876,16035,0,0,0,0,0.00,0.00,0.00,0.00
2016-05-31 20:10:00,2,16959,0,0.00,2,2,0,2,15005,18337,1059,16824,0,0,0,0,0.00,0.00,0.00,0.00
2016-05-31 20:20:00,2,15519,0,0.00,2,2,0,2,12945,18826,1654,15572,0,0,0,0,0.00,0.00,0.00,0.00
2016-05-31 20:30:00,2,16383,0,0.00,2,2,0,2,14038,18882,1659,16207,0,0,0,0,0.00,0.00,0.00,0.00
2016-05-31 20:40:00,2,17547,0,0.00,2,2,0,2,15005,19603,1488,17598,0,0,0,0,0.00,0.00,0.00,0.00
2016-05-31 20:50:00,2,16216,0,0.00,2,2,0,2,14251,19311,1643,16075,0,0,0,0,0.00,0.00,0.00,0.00
2016-05-31 21:00:00,2,14832,0,0.00,2,2,0,2,13179,17037,1139,14894,0,0,0,0,0.00,0.00,0.00,0.00
2016-05-31 21:10:00,2,15268,0,0.00,2,2,0,2,12376,18166,1800,14982,0,0,0,0,0.00,0.00,0.00,0.00
2016-05-31 21:20:00,2,16978,0,0.00,2,2,0,2,13631,21046,2322,16502,0,0,0,0,0.00,0.00,0.00,0.00
2016-05-31 21:30:00,2,16660,0,0.00,2,2,0,2,12719,22838,3227,15935,0,0,0,0,0.00,0.00,0.00,0.00
2016-05-31 21:40:00,2,16208,0,0.00,2,2,0,2,13811,20402,1814,16280,0,0,0,0,0.00,0.00,0.00,0.00
2016-05-31 21:50:00,2,17454,0,0.00,2,2,0,2,14548,21222,1997,17576,0,0,0,0,0.00,0.00,0.00,0.00
2016-05-31 22:00:00,2,19045,0,0.00,2,2,0,2,15542,27364,3505,17902,0,0,0,0,0.00,0.00,0.00,0.00
2016-05-31 22:10:00,2,18394,0,0.00,2,2,0,2,15477,20484,1712,18746,0,0,0,0,0.00,0.00,0.00,0.00
2016-05-31 22:20:00,2,18754,0,0.00,2,2,0,2,13507,22553,2946,19408,0,0,0,0,0.00,0.00,0.00,0.00
2016-05-31 22:30:00,2,21508,0,0.00,2,2,0,2,17476,27571,3349,21170,0,0,0,0,0.00,0.00,0.00,0.00
2016-05-31 22:40:00,2,20500,0,0.00,2,2,0,2,16089,28041,4046,19244,0,0,0,0,0.00,0.00,0.00,0.00
2016-05-31 22:50:00,2,19057,0,0.00,2,2,0,2,11580,31966,5778,18035,0,0,0,0,0.00,0.00,0.00,0.00
2016-05-31 23:00:00,2,21895,0,0.00,2,2,0,2,16776,26831,3420,21802,0,0,0,0,0.00,0.00,0.00,0.00
2016-05-31 23:10:00,2,17710,0,0.00,2,2,0,2,13026,23372,3035,18318,0,0,0,0,0.00,0.00,0.00,0.00
2016-05-31 23:20:00,2,22864,0,0.00,2,2,0,2,14789,50000,10599,17518,0,0,0,0,0.00,0.00,0.00,0.00
2016-05-31 23:30:00,2,15691,0,0.00,2,2,0,2,13339,20616,1977,15124,0,0,0,0,0.00,0.00,0.00,0.00
2016-05-31 23:40:00,2,19496,0,0.00,2,2,0,2,12016,26162,3961,19058,0,0,0,0,0.00,0.00,0.00,0.00
2016-05-31 23:50:00,2,20201,0,0.00,2,2,0,2,15881,26693,3457,19148,0,0,0,0,0.00,0.00,0.00,0.00
